Flag for U.S.A. Weather past 2 weeks in Urbana, Illinois, U.S.A.

Now
54 °F

Sunny.


Feels Like: 54 °F
Forecast: 46 / 68 °F
Wind: No wind

Location: University Of Illinois-Willard Airport

Current Time: Sep 16, 2014 at 9:09:14 PM

Latest Report: Sep 16, 2014 at 7:53 PM


Visibility: 10 mi

Pressure: 30.10 "Hg

Humidity: 83%

Dew point: 49 °F

Location of UrbanaLocation

Historic Weather in Urbana — Graph

°F

Urbana temperature yesterday

Maximum temperature yesterday: 60 °F (at 9:53 AM)
Minimum temperature yesterday: 47 °F (at 1:53 AM)
Average temperature yesterday: 55 °F

Past Weeks' High & Low Weather Summary

 TemperatureHumidityPressure
High92 °F (Sep 5, 2:53 PM)100% (Sep 8, 5:53 PM)30.38 "Hg (Sep 8, 5:53 PM)
Low32 °F (Sep 8, 5:53 PM)38% (Sep 14, 4:53 PM)29.64 "Hg (Sep 10, 4:53 PM)
Average64 °F81%30.08 "Hg
* Reported Sep 1 7:53 PM — Sep 16 7:53 PM, Urbana, Weather by CustomWeather, © 2014

Note: Actual official high and low records may vary slightly from our data, if they occured in-between our weather recording intervals... More about our weather records

Advertising

Urbana weather history for previous 24 hours

 ConditionsComfort  
Time TempWeatherWind HumidityBarometerVisibility
7:53 PM
Sep 16
54 °FSunny.No wind83%30.10 "Hg10 mi
6:53 PM61 °FSunny.No wind67%30.10 "Hg10 mi
5:53 PM67 °FSunny.No wind49%30.09 "Hg10 mi
4:53 PM68 °FSunny.No wind45%30.11 "Hg10 mi
3:53 PM68 °FSunny.3 mph51%30.12 "Hg10 mi
2:53 PM66 °FSunny.No wind52%30.14 "Hg10 mi
1:53 PM66 °FPartly sunny.5 mph52%30.17 "Hg10 mi
12:53 PM62 °FOvercast.3 mph62%30.19 "Hg10 mi
11:53 AM62 °FPartly sunny.No wind60%30.20 "Hg10 mi
10:53 AM61 °FMore clouds than sun.3 mph70%30.22 "Hg10 mi
9:53 AM60 °FSunny.3 mph72%30.22 "Hg10 mi
8:53 AM56 °FSunny.5 mph81%30.22 "Hg10 mi
7:53 AM54 °FFog.5 mph90%30.22 "Hg5 mi
6:53 AM50 °FFog.6 mph96%30.22 "Hg2 mi
5:53 AM52 °FMostly cloudy.8 mph93%30.21 "Hg7 mi
4:53 AM55 °FFog.6 mph93%30.19 "Hg6 mi
3:53 AM55 °FFog.6 mph96%30.19 "Hg4 mi
2:53 AM55 °FFog.8 mph93%30.18 "Hg4 mi
1:53 AM55 °FOvercast.9 mph93%30.18 "Hg8 mi
12:53 AM56 °FLow clouds.8 mph93%30.17 "Hg9 mi
11:53 PM
Sep 15
56 °FLow clouds.9 mph97%30.16 "Hg10 mi
11:00 PM56 °FLow clouds.16 mph97%30.15 "Hg10 mi
9:53 PM58 °FOvercast.8 mph100%30.13 "Hg9 mi
Weather by CustomWeather, © 2014

See weather overviewHow to use our weather pages